Time,TemperatureF,DewpointF,PressureIn,WindDirection,WindDirectionDegrees,WindSpeedMPH,WindSpeedGustMPH,Humidity,HourlyPrecipIn,Conditions,Clouds,dailyrainin,SoftwareType,DateUTC
2013-07-16 00:12:00,80.0,73.0,30.07,ESE,116,1.0,7.0,79,0.00,,,0.03,,2013-07-16 04:12:00,
2013-07-16 00:43:00,80.0,72.0,30.06,ESE,115,3.0,9.0,76,0.00,,,0.03,,2013-07-16 04:43:00,
2013-07-16 00:53:00,80.0,71.0,30.05,ESE,105,0.0,10.0,74,0.00,,,0.03,,2013-07-16 04:53:00,
2013-07-16 01:11:00,80.0,71.0,30.06,ESE,118,0.0,11.0,75,0.00,,,0.03,,2013-07-16 05:11:00,
2013-07-16 01:22:00,80.0,72.0,30.06,ESE,119,1.0,11.0,76,0.00,,,0.02,,2013-07-16 05:22:00,
2013-07-16 01:32:00,80.0,72.0,30.06,ESE,119,1.0,11.0,76,0.00,,,0.02,,2013-07-16 05:32:00,
2013-07-16 01:43:00,80.0,72.0,30.05,ESE,117,2.0,7.0,77,0.00,,,0.02,,2013-07-16 05:43:00,
2013-07-16 01:52:00,81.0,73.0,30.04,ENE,69,0.0,7.0,78,0.00,,,0.02,,2013-07-16 05:52:00,
2013-07-16 02:01:00,81.0,73.0,30.04,ENE,69,0.0,7.0,78,0.00,,,0.02,,2013-07-16 06:01:00,
2013-07-16 02:11:00,80.0,72.0,30.05,ESE,119,5.0,12.0,78,0.04,,,0.06,,2013-07-16 06:11:00,
2013-07-16 02:22:00,78.0,72.0,30.04,ESE,118,0.0,9.0,83,0.16,,,0.17,,2013-07-16 06:22:00,
2013-07-16 02:32:00,78.0,72.0,30.04,ESE,118,0.0,9.0,83,0.16,,,0.17,,2013-07-16 06:32:00,
2013-07-16 02:43:00,78.0,73.0,30.04,ESE,117,1.0,13.0,84,0.16,,,0.17,,2013-07-16 06:43:00,
2013-07-16 02:52:00,78.0,73.0,30.04,SE,128,3.0,10.0,84,0.16,,,0.17,,2013-07-16 06:52:00,
2013-07-16 03:01:00,78.0,72.0,30.04,ESE,107,2.0,12.0,83,0.07,,,0.17,,2013-07-16 07:01:00,
2013-07-16 03:12:00,78.0,72.0,30.04,ESE,107,2.0,12.0,83,0.07,,,0.17,,2013-07-16 07:12:00,
2013-07-16 03:22:00,78.0,72.0,30.03,ESE,103,2.0,8.0,82,0.00,,,0.17,,2013-07-16 07:22:00,
2013-07-16 03:32:00,78.0,72.0,30.03,East,86,0.0,7.0,82,0.00,,,0.17,,2013-07-16 07:32:00,
2013-07-16 03:43:00,78.0,72.0,30.03,East,86,0.0,7.0,82,0.00,,,0.17,,2013-07-16 07:43:00,
2013-07-16 03:52:00,77.0,70.0,30.04,ESE,119,7.0,13.0,78,0.00,,,0.17,,2013-07-16 07:52:00,
2013-07-16 04:01:00,76.0,71.0,30.03,ESE,113,0.0,8.0,84,0.06,,,0.23,,2013-07-16 08:01:00,
2013-07-16 04:11:00,76.0,71.0,30.03,ESE,113,0.0,8.0,84,0.06,,,0.23,,2013-07-16 08:11:00,
2013-07-16 04:22:00,76.0,72.0,30.03,East,101,3.0,10.0,86,0.06,,,0.22,,2013-07-16 08:22:00,
2013-07-16 04:32:00,76.0,72.0,30.03,East,101,3.0,10.0,86,0.06,,,0.22,,2013-07-16 08:32:00,
2013-07-16 04:43:00,76.0,71.0,30.02,SE,128,5.0,17.0,85,0.06,,,0.22,,2013-07-16 08:43:00,
2013-07-16 04:52:00,76.0,71.0,30.02,ESE,120,3.0,10.0,85,0.06,,,0.22,,2013-07-16 08:52:00,
2013-07-16 05:01:00,77.0,72.0,30.02,SSE,150,1.0,9.0,84,0.00,,,0.22,,2013-07-16 09:01:00,
2013-07-16 05:22:00,77.0,71.0,30.02,ESE,121,2.0,8.0,82,0.00,,,0.22,,2013-07-16 09:22:00,
2013-07-16 05:32:00,77.0,71.0,30.02,ESE,121,2.0,8.0,82,0.00,,,0.22,,2013-07-16 09:32:00,
2013-07-16 05:42:00,77.0,71.0,30.03,ESE,123,1.0,7.0,83,0.00,,,0.22,,2013-07-16 09:42:00,
2013-07-16 05:52:00,77.0,71.0,30.03,SE,124,1.0,9.0,83,0.00,,,0.22,,2013-07-16 09:52:00,
2013-07-16 06:01:00,77.0,71.0,30.03,SE,124,1.0,9.0,83,0.00,,,0.22,,2013-07-16 10:01:00,
2013-07-16 06:11:00,77.0,71.0,30.03,ESE,119,2.0,10.0,83,0.00,,,0.22,,2013-07-16 10:11:00,
2013-07-16 06:31:00,77.0,71.0,30.03,ESE,116,2.0,9.0,83,0.00,,,0.22,,2013-07-16 10:31:00,
2013-07-16 06:43:00,78.0,72.0,30.03,SE,132,2.0,8.0,81,0.00,,,0.22,,2013-07-16 10:43:00,
2013-07-16 06:52:00,78.0,71.0,30.03,SE,142,2.0,8.0,80,0.00,,,0.22,,2013-07-16 10:52:00,
2013-07-16 07:01:00,78.0,71.0,30.03,SE,142,2.0,8.0,80,0.00,,,0.22,,2013-07-16 11:01:00,
2013-07-16 07:11:00,78.0,71.0,30.03,ESE,119,1.0,7.0,80,0.00,,,0.22,,2013-07-16 11:11:00,
2013-07-16 07:32:00,78.0,72.0,30.03,East,99,0.0,7.0,81,0.00,,,0.22,,2013-07-16 11:32:00,
2013-07-16 07:42:00,79.0,73.0,30.03,ENE,68,0.0,8.0,82,0.00,,,0.22,,2013-07-16 11:42:00,
2013-07-16 07:53:00,79.0,73.0,30.03,South,186,1.0,10.0,82,0.00,,,0.22,,2013-07-16 11:53:00,
2013-07-16 08:01:00,79.0,73.0,30.03,South,186,1.0,10.0,82,0.00,,,0.22,,2013-07-16 12:01:00,
2013-07-16 08:11:00,79.0,73.0,30.03,NNW,347,2.0,6.0,81,0.00,,,0.22,,2013-07-16 12:11:00,
2013-07-16 08:32:00,80.0,74.0,30.04,East,92,1.0,11.0,81,0.00,,,0.22,,2013-07-16 12:32:00,
2013-07-16 08:43:00,80.0,74.0,30.04,East,92,1.0,11.0,81,0.00,,,0.22,,2013-07-16 12:43:00,
2013-07-16 08:53:00,76.0,71.0,30.06,SSE,164,4.0,15.0,84,0.14,,,0.36,,2013-07-16 12:53:00,
2013-07-16 09:11:00,74.0,71.0,30.07,ESE,102,7.0,15.0,89,0.56,,,0.78,,2013-07-16 13:11:00,
2013-07-16 09:22:00,74.0,71.0,30.09,ESE,117,5.0,16.0,91,0.70,,,0.92,,2013-07-16 13:22:00,
2013-07-16 09:42:00,73.0,70.0,30.09,North,5,3.0,10.0,91,0.70,,,0.92,,2013-07-16 13:42:00,
2013-07-16 09:52:00,74.0,71.0,30.08,ESE,113,4.0,11.0,91,0.54,,,0.92,,2013-07-16 13:52:00,
2013-07-16 10:02:00,74.0,71.0,30.08,ESE,113,4.0,11.0,91,0.54,,,0.92,,2013-07-16 14:02:00,
2013-07-16 10:11:00,73.0,70.0,30.09,ENE,58,2.0,8.0,89,0.12,,,0.93,,2013-07-16 14:11:00,
2013-07-16 10:22:00,73.0,70.0,30.09,ENE,63,1.0,9.0,90,0.03,,,0.95,,2013-07-16 14:22:00,
2013-07-16 10:43:00,74.0,71.0,30.10,ENE,57,0.0,8.0,89,0.06,,,0.98,,2013-07-16 14:43:00,
2013-07-16 10:52:00,74.0,71.0,30.10,East,81,1.0,9.0,89,0.09,,,1.01,,2013-07-16 14:52:00,
2013-07-16 11:01:00,74.0,71.0,30.10,East,81,1.0,9.0,89,0.09,,,1.01,,2013-07-16 15:01:00,
2013-07-16 11:11:00,75.0,72.0,30.10,East,91,2.0,10.0,89,0.12,,,1.05,,2013-07-16 15:11:00,
2013-07-16 11:22:00,75.0,72.0,30.10,North,355,3.0,14.0,89,0.11,,,1.06,,2013-07-16 15:22:00,
2013-07-16 11:43:00,75.0,72.0,30.10,SSE,152,2.0,10.0,90,0.08,,,1.06,,2013-07-16 15:43:00,
2013-07-16 11:53:00,76.0,73.0,30.10,ESE,112,4.0,15.0,90,0.05,,,1.07,,2013-07-16 15:53:00,
2013-07-16 12:01:00,76.0,73.0,30.10,ESE,112,4.0,15.0,90,0.05,,,1.07,,2013-07-16 16:01:00,
2013-07-16 12:11:00,75.0,72.0,30.10,SE,132,6.0,12.0,89,0.03,,,1.08,,2013-07-16 16:11:00,
2013-07-16 12:32:00,75.0,71.0,30.11,SE,133,5.0,13.0,88,0.07,,,1.12,,2013-07-16 16:32:00,
2013-07-16 12:43:00,74.0,70.0,30.11,ESE,111,4.0,15.0,87,0.10,,,1.15,,2013-07-16 16:43:00,
2013-07-16 12:52:00,74.0,70.0,30.11,ESE,121,4.0,15.0,87,0.14,,,1.21,,2013-07-16 16:52:00,
2013-07-16 13:02:00,74.0,70.0,30.11,ESE,121,4.0,15.0,87,0.14,,,1.21,,2013-07-16 17:02:00,
2013-07-16 13:12:00,74.0,70.0,30.11,ESE,115,3.0,10.0,87,0.17,,,1.25,,2013-07-16 17:12:00,
2013-07-16 13:22:00,74.0,70.0,30.11,SE,132,3.0,8.0,87,0.13,,,1.26,,2013-07-16 17:22:00,
2013-07-16 13:43:00,75.0,71.0,30.11,ESE,115,3.0,11.0,86,0.12,,,1.28,,2013-07-16 17:43:00,
2013-07-16 13:53:00,75.0,70.0,30.10,ESE,113,1.0,8.0,85,0.07,,,1.28,,2013-07-16 17:53:00,
2013-07-16 14:01:00,75.0,70.0,30.10,ESE,113,1.0,8.0,85,0.07,,,1.28,,2013-07-16 18:01:00,
2013-07-16 14:11:00,76.0,71.0,30.09,ESE,115,1.0,9.0,84,0.03,,,1.28,,2013-07-16 18:11:00,
2013-07-16 14:22:00,77.0,71.0,30.09,SE,130,3.0,11.0,83,0.01,,,1.28,,2013-07-16 18:22:00,
2013-07-16 14:43:00,78.0,72.0,30.09,ESE,117,2.0,9.0,82,0.00,,,1.28,,2013-07-16 18:43:00,
2013-07-16 14:53:00,78.0,71.0,30.09,SE,126,2.0,10.0,80,0.00,,,1.28,,2013-07-16 18:53:00,
2013-07-16 15:11:00,79.0,72.0,30.08,SE,139,2.0,8.0,80,0.00,,,1.28,,2013-07-16 19:11:00,
2013-07-16 15:22:00,78.0,70.0,30.06,SE,131,2.0,10.0,77,0.00,,,1.28,,2013-07-16 19:22:00,
2013-07-16 15:52:00,80.0,71.0,30.06,ESE,123,3.0,7.0,73,0.00,,,1.28,,2013-07-16 19:52:00,
2013-07-16 16:03:00,80.0,71.0,30.06,ESE,123,3.0,7.0,73,0.00,,,1.28,,2013-07-16 20:03:00,
2013-07-16 16:12:00,80.0,70.0,30.05,ESE,107,1.0,8.0,72,0.00,,,1.28,,2013-07-16 20:12:00,
2013-07-16 16:32:00,80.0,70.0,30.05,East,89,1.0,10.0,72,0.00,,,1.28,,2013-07-16 20:32:00,
2013-07-16 16:43:00,81.0,70.0,30.05,East,94,4.0,10.0,70,0.00,,,1.28,,2013-07-16 20:43:00,
2013-07-16 16:52:00,81.0,71.0,30.05,SE,142,5.0,13.0,71,0.00,,,1.28,,2013-07-16 20:52:00,
2013-07-16 17:01:00,81.0,71.0,30.05,SE,142,5.0,13.0,71,0.00,,,1.28,,2013-07-16 21:01:00,
2013-07-16 17:11:00,81.0,70.0,30.04,SE,128,3.0,9.0,69,0.00,,,1.28,,2013-07-16 21:11:00,
2013-07-16 17:22:00,81.0,70.0,30.04,SE,128,3.0,9.0,69,0.00,,,1.28,,2013-07-16 21:22:00,
2013-07-16 17:32:00,81.0,70.0,30.05,ESE,115,3.0,10.0,70,0.00,,,1.28,,2013-07-16 21:32:00,
2013-07-16 17:52:00,81.0,71.0,30.05,SE,130,4.0,10.0,72,0.00,,,1.28,,2013-07-16 21:52:00,
2013-07-16 18:01:00,81.0,72.0,30.05,SE,126,3.0,10.0,73,0.00,,,1.28,,2013-07-16 22:01:00,
2013-07-16 18:22:00,81.0,72.0,30.05,South,178,6.0,12.0,75,0.00,,,1.28,,2013-07-16 22:22:00,
2013-07-16 18:33:00,81.0,73.0,30.04,SE,126,1.0,11.0,77,0.00,,,1.28,,2013-07-16 22:33:00,
2013-07-16 18:43:00,81.0,73.0,30.05,SE,126,5.0,12.0,78,0.00,,,1.28,,2013-07-16 22:43:00,
2013-07-16 18:52:00,81.0,73.0,30.05,SE,126,5.0,12.0,78,0.00,,,1.28,,2013-07-16 22:52:00,
2013-07-16 19:01:00,80.0,72.0,30.05,SE,126,4.0,10.0,78,0.00,,,1.28,,2013-07-16 23:01:00,
2013-07-16 19:11:00,80.0,72.0,30.06,SE,124,2.0,10.0,78,0.00,,,1.28,,2013-07-16 23:11:00,
2013-07-16 19:32:00,80.0,72.0,30.06,SE,135,1.0,7.0,76,0.00,,,1.28,,2013-07-16 23:32:00,
2013-07-16 19:43:00,80.0,72.0,30.06,NW,306,2.0,11.0,77,0.00,,,1.28,,2013-07-16 23:43:00,
2013-07-16 19:52:00,80.0,73.0,30.06,NNE,26,1.0,8.0,79,0.00,,,1.28,,2013-07-16 23:52:00,
2013-07-16 20:01:00,80.0,73.0,30.06,NNE,26,1.0,8.0,79,0.00,,,1.28,,2013-07-17 00:01:00,
2013-07-16 20:11:00,79.0,72.0,30.06,ESE,113,0.0,5.0,80,0.00,,,1.28,,2013-07-17 00:11:00,
2013-07-16 20:33:00,79.0,73.0,30.06,NW,318,3.0,8.0,82,0.00,,,1.28,,2013-07-17 00:33:00,
2013-07-16 20:42:00,79.0,73.0,30.06,NNW,348,0.0,5.0,83,0.00,,,1.28,,2013-07-17 00:42:00,
2013-07-16 20:52:00,78.0,70.0,30.07,SE,140,3.0,12.0,77,0.00,,,1.28,,2013-07-17 00:52:00,
2013-07-16 21:01:00,78.0,70.0,30.07,SE,140,3.0,12.0,77,0.00,,,1.28,,2013-07-17 01:01:00,
2013-07-16 21:11:00,78.0,71.0,30.07,East,82,0.0,6.0,78,0.00,,,1.28,,2013-07-17 01:11:00,
2013-07-16 21:32:00,78.0,72.0,30.08,ESE,123,1.0,8.0,81,0.00,,,1.28,,2013-07-17 01:32:00,
2013-07-16 21:43:00,78.0,72.0,30.09,East,93,0.0,8.0,83,0.00,,,1.28,,2013-07-17 01:43:00,
2013-07-16 21:53:00,78.0,72.0,30.09,East,93,0.0,8.0,83,0.00,,,1.28,,2013-07-17 01:53:00,
2013-07-16 22:01:00,78.0,72.0,30.09,SSE,159,0.0,5.0,82,0.00,,,1.28,,2013-07-17 02:01:00,
2013-07-16 22:22:00,78.0,72.0,30.09,ESE,110,1.0,7.0,81,0.00,,,1.28,,2013-07-17 02:22:00,
2013-07-16 22:32:00,78.0,71.0,30.09,ESE,119,2.0,10.0,80,0.00,,,1.28,,2013-07-17 02:32:00,
2013-07-16 22:43:00,78.0,71.0,30.09,ESE,116,2.0,10.0,79,0.00,,,1.28,,2013-07-17 02:43:00,
2013-07-16 22:53:00,78.0,71.0,30.09,ESE,116,2.0,10.0,79,0.00,,,1.28,,2013-07-17 02:53:00,
2013-07-16 23:01:00,79.0,72.0,30.09,ESE,117,3.0,7.0,79,0.00,,,1.28,,2013-07-17 03:01:00,
2013-07-16 23:22:00,79.0,72.0,30.09,ESE,106,2.0,9.0,79,0.00,,,1.28,,2013-07-17 03:22:00,
2013-07-16 23:32:00,79.0,72.0,30.09,ESE,102,1.0,8.0,79,0.00,,,1.28,,2013-07-17 03:32:00,
2013-07-16 23:43:00,79.0,71.0,30.09,ESE,121,3.0,10.0,77,0.00,,,1.28,,2013-07-17 03:43:00,